Wetbulb
70.56 72.31 73.04 73.21 73.25 73.87 74.25 74.77 74.80 76.13 75.75 74.68 73.93 74.20 73.65 75.07 75.58 76.22 77.27 77.65 77.47 77.14 77.81 77.61 77.42 77.67 76.74 77.04 77.90 77.01 75.61 73.78 75.72 73.02 72.25 72.44 73.96 74.12 74.69 75.24 75.77 74.95 75.88
69.82 71.27 72.55 73.14 72.94 73.67 74.37 75.08 75.40 76.65 76.26 75.83 76.13 75.92 74.95 74.91 75.36 76.14 77.28 77.42 77.29 76.99 77.28 78.39 77.45 77.99 76.02 77.91 77.78 77.27 74.70 74.84 76.22 72.14 72.38 69.32 70.42 72.66 73.34 74.97 74.79 75.14 76.34
68.48 70.32 71.78 72.74 73.32 73.24 74.11 74.90 75.93 76.53 77.08 77.26 77.10 76.66 76.96 76.70 75.40 75.60 75.45 76.90 77.44 77.14 77.34 77.59 78.15 77.88 77.16 75.48 78.01 77.02 77.00 72.77 75.66 76.79 73.30 68.82 68.93 70.65 72.53 73.22 73.79 75.03 75.80
69.95 70.42 71.27 72.29 73.17 73.81 74.42 75.01 75.97 76.18 77.08 77.98 76.47 76.87 74.42 74.54 74.76 75.64 75.88 76.04 76.52 76.84 77.10 77.53 77.62 78.53 77.94 77.88 77.78 77.44 77.52 77.29 73.66 75.33 75.90 77.12 76.29 70.33 68.35 71.72 73.09 73.51 73.70
69.60 70.48 71.19 72.35 73.53 74.39 74.47 75.02 76.26 76.44 76.55 77.44 77.45 76.62 75.09 74.35 75.10 75.89 76.45 76.71 76.81 77.30 77.23 77.49 78.33 78.21 76.73 77.62 78.00 78.13 77.10 77.23 75.13 74.35 76.09 76.15 76.30 76.15 71.51 69.33 71.32 72.32 75.32
69.50 70.62 72.06 72.79 73.16 74.54 74.72 74.79 76.00 76.70 76.88 76.88 76.80 76.51 75.56 75.72 74.61 75.32 74.59 74.37 76.18 75.79 76.40 76.60 77.20 78.14 78.10 77.73 76.89 77.94 76.32 78.23 76.94 75.77 75.51 73.65 72.98 72.68 72.59 72.11 72.81 72.06 74.58
69.67 69.84 71.16 72.19 72.96 73.66 74.21 74.41 75.48 75.75 76.52 76.28 76.13 76.35 75.76 75.74 75.89 75.51 73.98 75.79 75.09 74.94 75.74 77.00 77.00 76.75 77.46 77.86 77.53 78.29 77.34 77.21 77.51 77.31 75.37 75.62 74.54 75.17 74.75 73.39 72.47 72.28 74.31
69.34 69.92 71.26 72.49 73.18 73.47 74.38 74.25 74.84 75.24 75.87 75.95 76.44 77.15 76.33 74.31 74.06 75.12 76.22 74.70 76.55 75.54 78.00 76.79 77.08 77.43 77.21 77.68 78.04 76.97 76.05 77.00 76.05 76.07 77.12 75.38 76.49 75.82 74.93 73.78 72.51 70.87 72.26
67.92 69.67 71.41 72.70 72.91 73.47 74.31 74.54 74.76 75.37 75.55 75.37 76.13 76.18 75.80 75.56 75.80 76.06 77.27 76.02 76.54 77.35 77.86 77.78 77.02 77.40 77.37 77.76 77.93 75.98 76.79 77.65 77.36 76.74 76.48 75.81 75.76 75.91 75.98 75.36 74.23 72.19 68.90
67.02 68.53 70.68 72.04 71.68 73.56 74.40 74.09 75.23 75.28 75.40 75.15 75.53 75.33 75.50 75.91 75.40 76.24 75.47 76.62 78.45 78.09 77.77 77.77 77.53 76.86 76.99 77.04 77.48 76.69 76.89 77.18 76.08 75.80 76.86 76.67 75.22 75.69 75.50 74.88 74.51 74.04 72.07
68.12 68.10 68.88 72.13 73.29 74.06 73.49 71.73 74.75 75.20 75.07 74.95 75.14 75.31 75.33 75.34 76.25 75.62 75.55 76.38 76.31 77.56 77.57 78.34 77.87 77.62 76.91 77.43 77.79 77.39 76.64 76.48 76.06 76.56 76.38 76.68 78.05 75.30 74.64 74.49 74.41 73.93 73.52
68.69 69.10 68.43 68.94 70.66 71.47 71.15 71.07 72.11 73.24 74.70 75.16 75.40 75.25 74.65 75.46 74.83 75.53 75.50 76.95 76.23 77.60 77.21 77.57 78.06 77.36 76.38 77.32 77.38 76.45 75.85 76.01 75.02 75.15 75.69 75.68 75.22 76.83 77.16 75.24 76.16 75.57 75.90
69.26 70.15 70.89 70.09 70.79 69.75 68.96 69.42 70.96 72.75 73.22 75.14 74.61 75.94 74.01 74.01 74.90 75.44 75.91 76.88 76.13 76.50 76.72 77.19 76.89 76.35 76.81 77.00 76.80 76.63 76.50 76.41 75.82 75.47 75.33 75.10 75.62 75.59 75.12 76.00 75.27 74.36 74.99
68.30 69.36 70.24 70.24 71.58 71.41 70.87 69.37 69.77 71.66 72.68 73.90 74.54 74.13 74.37 74.48 74.67 75.72 76.47 76.41 77.31 75.60 76.07 76.57 77.09 76.89 76.54 76.81 77.20 76.63 76.50 76.40 75.90 76.64 76.09 76.04 75.78 75.93 76.27 75.49 76.52 75.78 75.77
67.23 68.07 68.46 69.45 70.71 71.04 71.19 70.90 69.25 69.09 69.70 71.07 70.80 72.31 74.15 75.16 75.67 75.76 76.49 76.65 76.86 76.25 77.11 76.68 77.18 77.41 76.86 75.58 77.20 77.24 76.53 76.87 76.37 76.65 76.67 76.70 75.16 71.62 72.20 76.05 77.15 76.31 75.55
66.82 68.37 68.93 69.56 69.98 70.78 71.09 71.05 71.05 70.22 71.21 68.73 68.33 69.00 69.63 71.57 73.24 74.18 74.89 75.69 76.08 76.78 77.01 76.59 76.75 77.02 76.20 62.30 63.79 70.59 76.68 77.24 76.68 76.01 76.76 76.96 74.15 73.12 68.53 67.83 67.61 71.15 76.10
66.06 68.02 69.06 69.39 70.33 71.45 71.65 71.49 70.94 70.80 70.57 68.72 68.62 68.51 69.54 69.60 69.94 71.12 72.80 73.85 74.57 75.13 74.93 75.12 74.72 71.75 70.50 59.81 62.16 65.40 75.87 77.06 76.05 75.98 76.54 76.38 73.99 72.53 74.53 71.29 68.76 68.28 66.30
63.40 62.81 63.26 63.27 64.38 67.20 69.55 69.95 69.96 70.15 69.96 69.19 68.80 70.24 68.92 67.79 67.54 67.67 68.65 70.28 71.64 72.63 73.56 72.09 70.94 68.46 63.53 57.04 60.79 66.71 75.64 73.15 72.28 72.67 71.46 70.79 69.09 66.25 66.30 72.64 74.25 75.57 76.15
61.81 60.47 61.25 60.28 59.55 59.34 61.95 63.02 62.61 63.80 64.49 64.19 66.18 67.61 66.40 65.77 65.54 65.31 66.78 68.34 70.60 71.18 71.10 70.03 67.53 64.63 60.53 53.39 55.53 67.95 71.96 70.56 69.45 67.46 67.78 68.65 66.73 56.77 57.58 69.15 69.85 70.67 72.20
59.18 58.05 57.33 57.43 57.34 56.58 58.64 57.75 59.10 59.96 60.01 60.91 61.10 63.21 65.10 67.56 68.09 68.33 66.46 65.92 69.46 65.86 64.25 64.28 61.54 57.44 56.89 50.62 52.26 61.60 69.56 68.18 68.10 67.83 66.39 56.23 57.82 53.99 53.95 66.34 66.61 66.04 65.88
56.67 56.44 55.49 54.77 55.83 57.13 57.37 56.33 55.90 56.53 59.11 60.75 62.99 62.63 63.23 64.34 65.13 65.41 66.67 64.92 60.74 59.20 60.53 58.93 53.73 53.28 52.84 52.33 49.39 50.33 61.93 65.07 64.40 64.24 63.67 62.34 54.09 51.84 51.85 53.51 64.29 62.56 63.26
53.21 53.54 53.13 53.22 54.62 55.40 56.20 55.84 55.71 58.09 60.13 61.71 61.83 62.30 62.49 62.00 63.31 64.59 64.74 62.71 60.95 60.00 59.68 58.51 57.40 55.67 54.54 48.77 48.79 48.66 50.13 53.38 57.52 57.71 57.92 59.03 51.46 50.41 52.55 57.88 54.58 54.19 57.85
52.65 52.90 52.80 53.11 54.47 57.42 57.26 54.45 55.57 59.02 59.78 60.08 60.19 60.36 61.03 61.35 62.11 62.95 60.24 59.15 61.90 61.57 61.01 60.16 58.62 55.07 56.51 54.04 49.27 48.81 49.72 51.55 54.95 54.83 53.46 53.35 51.30 51.64 54.70 55.34 55.79 56.12 63.19
53.22 53.97 53.99 52.63 52.62 54.87 55.42 56.89 56.63 57.86 58.66 58.66 58.79 58.90 58.82 59.01 60.03 59.93 60.65 60.98 60.67 60.80 59.50 58.88 57.98 56.59 52.11 50.04 47.68 50.73 53.86 52.74 54.39 55.65 58.79 55.85 54.81 54.41 57.03 59.27 60.23 61.97 61.74
55.31 55.44 54.68 53.26 53.18 54.33 54.56 54.91 55.45 57.29 56.94 57.07 56.99 57.17 56.97 57.51 56.37 53.14 53.29 53.39 48.51 47.75 57.88 56.38 55.28 55.91 54.47 47.11 42.79 43.62 47.56 48.91 48.82 51.60 56.00 54.98 54.89 54.97 56.10 57.36 57.55 57.99 56.58
55.59 55.54 55.36 53.95 53.52 53.22 53.28 53.89 54.86 56.81 57.21 56.16 56.26 56.18 56.09 55.68 54.42 52.25 48.37 42.18 41.60 40.53 39.72 39.64 45.28 46.48 41.65 40.05 39.64 39.43 40.37 41.57 42.86 53.22 52.58 50.34 51.25 50.93 51.83 50.22 50.85 52.66 53.38
MSLP
1014.32 1015.09 1015.68 1016.24 1016.86 1017.70 1018.42 1018.95 1019.25 1019.89 1020.04 1020.13 1019.94 1019.96 1019.88 1020.21 1020.38 1020.53 1021.24 1021.47 1021.51 1021.60 1021.54 1021.04 1021.21 1021.04 1020.81 1021.11 1020.87 1020.53 1020.52 1019.91 1020.05 1019.32 1019.14 1019.31 1019.34 1019.28 1019.26 1019.22 1019.24 1019.53 1019.43
1013.84 1014.56 1015.32 1015.86 1016.46 1017.34 1018.08 1018.82 1019.44 1019.94 1020.03 1019.99 1019.83 1019.66 1019.80 1020.00 1020.20 1020.62 1021.02 1021.15 1021.37 1021.58 1021.47 1021.38 1021.11 1021.13 1021.03 1021.28 1021.15 1020.99 1020.10 1020.12 1020.35 1019.64 1019.29 1018.67 1018.93 1018.78 1018.82 1019.12 1019.21 1019.37 1019.14
1013.70 1014.42 1014.89 1015.36 1016.10 1016.86 1017.73 1018.50 1019.16 1019.72 1019.94 1019.87 1020.07 1020.30 1020.24 1020.38 1020.56 1020.83 1020.99 1020.88 1021.23 1021.39 1021.56 1021.51 1021.21 1021.42 1021.00 1020.89 1021.13 1021.03 1020.83 1020.03 1020.46 1020.51 1019.59 1018.78 1018.44 1018.76 1018.86 1019.18 1019.04 1019.35 1019.04
1013.27 1013.57 1014.37 1015.05 1015.48 1016.28 1017.31 1018.19 1018.93 1019.50 1019.90 1020.04 1019.90 1020.10 1020.07 1019.90 1019.75 1020.37 1020.46 1020.71 1021.20 1021.24 1021.33 1021.45 1021.47 1021.48 1021.08 1021.36 1021.18 1020.91 1020.97 1020.56 1020.18 1020.24 1020.36 1020.45 1020.24 1018.73 1018.28 1018.66 1018.96 1019.12 1018.90
1013.08 1012.69 1013.60 1014.30 1014.94 1015.80 1016.64 1017.68 1018.60 1019.21 1019.58 1020.02 1019.95 1020.36 1019.76 1019.75 1020.05 1020.14 1020.75 1020.84 1021.16 1021.23 1021.14 1021.35 1021.51 1021.63 1021.07 1021.49 1021.50 1021.42 1021.37 1021.00 1020.58 1020.36 1020.24 1020.42 1019.95 1019.97 1018.91 1018.28 1018.52 1018.79 1018.85
1012.07 1012.54 1012.94 1013.64 1014.56 1015.39 1016.22 1017.10 1018.18 1018.92 1019.47 1019.96 1020.24 1020.26 1020.22 1019.92 1019.81 1020.11 1020.42 1020.72 1020.71 1021.00 1021.18 1021.32 1021.53 1021.60 1021.21 1021.49 1021.39 1021.54 1021.56 1021.62 1021.28 1020.88 1020.69 1020.27 1019.84 1019.66 1019.27 1018.81 1018.98 1018.78 1018.91
1011.74 1012.07 1012.60 1013.26 1014.18 1015.03 1015.87 1016.67 1017.68 1018.52 1019.13 1019.64 1020.04 1020.34 1020.42 1020.68 1020.62 1020.46 1020.32 1019.94 1020.41 1020.62 1021.21 1021.26 1021.46 1021.24 1021.44 1021.38 1021.44 1021.82 1021.78 1021.62 1021.35 1021.48 1020.86 1020.89 1020.66 1020.54 1020.22 1019.52 1019.09 1019.00 1018.96
1011.81 1011.91 1012.46 1013.27 1014.13 1014.85 1015.67 1016.33 1017.18 1018.07 1018.80 1019.27 1019.78 1020.36 1020.55 1020.58 1020.46 1020.32 1019.62 1020.29 1020.31 1020.25 1020.42 1020.86 1020.95 1021.15 1021.34 1021.34 1021.47 1021.30 1021.34 1021.44 1021.45 1021.64 1021.64 1021.02 1020.89 1020.84 1020.68 1020.42 1020.06 1019.04 1018.60
1011.61 1012.18 1012.40 1013.29 1013.97 1014.70 1015.37 1015.99 1016.79 1017.66 1018.34 1018.88 1019.52 1020.09 1020.32 1020.58 1020.04 1020.33 1020.70 1020.30 1020.51 1020.20 1020.73 1020.66 1020.78 1020.87 1021.07 1021.27 1021.38 1021.14 1021.41 1021.50 1021.63 1021.51 1021.68 1021.44 1020.88 1020.87 1020.71 1020.65 1020.50 1020.23 1019.17
1011.67 1012.02 1012.42 1013.04 1014.50 1014.52 1015.32 1016.09 1016.42 1017.28 1017.96 1018.56 1019.07 1019.52 1019.98 1020.27 1020.36 1020.55 1020.66 1020.66 1020.64 1020.28 1020.45 1020.48 1020.52 1020.67 1020.90 1021.12 1021.32 1021.15 1021.33 1021.64 1021.51 1021.35 1021.54 1021.60 1020.96 1021.02 1020.77 1020.67 1020.50 1020.42 1020.14
1011.13 1012.24 1013.06 1013.04 1013.73 1014.60 1015.96 1016.62 1016.52 1017.13 1017.68 1018.22 1018.64 1019.09 1019.58 1019.95 1020.29 1020.26 1020.34 1020.43 1020.48 1020.54 1020.46 1020.49 1020.40 1020.67 1020.91 1020.93 1021.15 1021.33 1021.19 1021.50 1021.52 1021.59 1021.66 1021.62 1021.60 1021.19 1020.65 1020.58 1020.53 1020.35 1020.15
1011.31 1012.26 1013.14 1013.82 1014.76 1015.75 1016.63 1016.99 1017.42 1017.51 1017.88 1017.91 1018.42 1019.22 1019.34 1019.68 1019.75 1020.07 1020.16 1020.08 1020.33 1020.21 1020.25 1020.22 1020.52 1020.54 1020.65 1020.93 1021.12 1021.07 1020.90 1021.35 1021.40 1021.43 1021.51 1021.57 1021.31 1021.58 1021.40 1021.02 1020.88 1020.54 1020.60
1011.43 1011.87 1012.90 1013.79 1014.76 1015.89 1016.18 1017.10 1017.82 1017.82 1018.36 1018.10 1018.32 1018.90 1019.17 1019.40 1019.47 1019.64 1019.76 1020.01 1020.24 1020.20 1019.96 1020.22 1020.08 1020.30 1020.59 1021.06 1021.25 1021.18 1021.10 1021.12 1021.15 1021.16 1021.30 1021.44 1021.35 1021.54 1021.39 1021.48 1020.96 1020.57 1020.23
1011.91 1012.21 1012.79 1013.64 1014.31 1015.27 1016.42 1017.25 1017.67 1018.14 1018.61 1018.84 1018.64 1018.40 1018.64 1018.92 1019.23 1019.42 1019.73 1019.75 1020.07 1020.12 1019.99 1020.04 1020.16 1020.18 1020.45 1020.80 1021.22 1021.13 1021.06 1021.02 1020.90 1020.95 1020.98 1021.12 1021.25 1021.43 1021.52 1021.38 1021.39 1021.10 1020.87
1012.44 1012.91 1013.58 1014.05 1014.62 1015.18 1016.13 1017.10 1017.95 1018.63 1019.25 1019.11 1019.26 1019.29 1019.44 1019.66 1019.59 1019.56 1019.69 1019.76 1019.77 1019.82 1020.00 1019.95 1020.06 1020.10 1020.40 1020.74 1020.98 1020.87 1020.83 1020.71 1020.66 1020.80 1020.73 1020.58 1020.70 1021.34 1021.66 1021.90 1021.68 1021.49 1021.02
1012.93 1013.33 1013.68 1014.34 1014.82 1015.44 1016.06 1016.97 1017.70 1018.54 1018.92 1019.02 1019.46 1019.73 1020.18 1020.09 1019.97 1020.10 1019.93 1019.99 1020.08 1019.99 1020.15 1020.27 1020.25 1020.54 1020.68 1021.97 1021.84 1021.51 1020.60 1020.48 1020.46 1020.40 1020.54 1020.47 1020.89 1020.79 1021.63 1021.80 1021.93 1022.06 1021.74
1013.74 1013.98 1014.00 1014.58 1015.00 1015.35 1016.03 1016.66 1017.48 1018.22 1018.87 1019.39 1019.69 1020.10 1020.05 1020.40 1020.55 1020.52 1020.36 1020.44 1020.42 1020.42 1020.40 1020.52 1020.79 1021.65 1022.20 1022.58 1022.04 1021.64 1021.02 1020.54 1020.36 1020.47 1020.49 1020.60 1021.15 1021.41 1021.31 1021.01 1021.05 1021.28 1021.22
1015.16 1015.70 1016.01 1016.41 1016.68 1016.76 1016.79 1017.24 1017.66 1018.19 1018.79 1019.40 1019.72 1020.02 1020.59 1020.78 1021.14 1021.19 1021.07 1021.09 1020.98 1020.74 1020.64 1021.40 1021.64 1022.12 1022.97 1023.01 1021.90 1021.14 1020.95 1021.28 1021.54 1021.73 1021.68 1021.78 1022.24 1022.64 1022.62 1021.63 1021.01 1020.81 1020.60
1016.21 1016.83 1017.25 1017.69 1017.94 1017.94 1017.90 1018.06 1018.37 1018.82 1019.34 1019.78 1020.04 1020.28 1020.95 1021.15 1021.33 1021.63 1021.65 1021.62 1021.31 1021.08 1021.54 1022.09 1022.51 1022.96 1023.42 1023.62 1022.78 1021.64 1021.77 1021.92 1022.06 1022.18 1022.21 1022.14 1022.58 1023.35 1023.06 1022.36 1021.59 1021.17 1020.38
1017.36 1018.02 1018.51 1018.73 1018.90 1019.00 1018.84 1018.99 1019.27 1019.59 1019.95 1020.30 1020.79 1020.96 1021.00 1020.93 1021.05 1021.38 1021.89 1021.92 1021.64 1022.18 1022.55 1022.86 1023.63 1024.02 1024.28 1024.32 1023.69 1022.47 1021.82 1022.16 1021.93 1022.28 1022.64 1023.50 1023.44 1023.73 1023.32 1022.92 1022.14 1021.51 1021.15
1018.47 1018.98 1019.30 1019.47 1019.83 1020.05 1019.93 1020.06 1020.47 1020.68 1020.86 1020.84 1020.95 1021.26 1021.42 1021.59 1021.68 1021.98 1021.93 1022.19 1022.64 1023.08 1023.34 1023.82 1024.41 1024.65 1025.22 1025.13 1024.77 1024.22 1023.57 1022.76 1022.32 1022.52 1022.68 1023.12 1023.87 1024.01 1023.53 1023.23 1023.03 1022.73 1022.23
1019.41 1019.82 1019.91 1020.36 1020.67 1020.77 1020.88 1021.09 1021.39 1021.45 1021.42 1021.34 1021.47 1021.65 1021.74 1021.85 1022.17 1022.25 1022.54 1022.86 1023.12 1023.37 1023.53 1023.94 1024.20 1024.92 1025.03 1025.81 1025.27 1025.06 1024.72 1024.60 1023.96 1023.80 1024.04 1023.94 1024.16 1023.88 1023.50 1022.31 1023.06 1022.68 1021.85
1020.25 1020.64 1020.70 1021.02 1021.38 1021.48 1021.76 1022.16 1022.17 1021.87 1021.94 1021.92 1021.96 1022.17 1022.42 1022.50 1022.72 1022.74 1023.08 1023.24 1023.23 1023.22 1023.16 1023.71 1023.91 1024.82 1024.88 1024.90 1025.40 1025.26 1024.94 1024.99 1024.52 1024.29 1024.74 1024.08 1023.62 1023.36 1023.31 1023.07 1022.74 1021.84 1021.21
1020.70 1021.05 1021.34 1021.67 1022.06 1022.29 1022.32 1022.44 1022.53 1022.37 1022.17 1022.19 1022.32 1022.55 1022.62 1022.75 1022.84 1022.94 1023.17 1023.08 1023.28 1023.64 1023.83 1024.12 1024.27 1024.76 1025.15 1025.52 1025.95 1025.12 1024.50 1024.42 1023.96 1024.05 1023.22 1023.47 1023.81 1023.68 1023.29 1022.56 1022.20 1021.72 1021.81
1020.98 1021.22 1021.68 1022.00 1022.38 1022.68 1022.86 1022.83 1022.91 1022.65 1022.43 1022.58 1022.65 1022.71 1022.76 1023.03 1023.69 1024.66 1025.06 1025.45 1026.46 1026.23 1024.84 1024.98 1025.25 1025.29 1025.62 1026.85 1027.74 1027.33 1026.35 1025.69 1025.45 1025.24 1023.90 1023.54 1023.74 1023.80 1023.44 1023.00 1022.91 1022.72 1022.88
1021.00 1021.62 1021.83 1022.24 1022.48 1022.68 1022.94 1023.14 1023.21 1023.06 1022.79 1022.78 1022.81 1022.92 1022.74 1022.95 1023.53 1024.50 1026.10 1027.56 1027.68 1027.48 1027.38 1027.34 1026.86 1026.98 1027.88 1027.79 1027.75 1027.66 1027.20 1026.65 1026.02 1024.95 1024.14 1024.44 1024.35 1024.28 1023.92 1024.26 1024.11 1023.82 1023.88
Wind_Speed
15 15 12 13 14 13 13 12 11 10 8 7 6 6 6 5 5 5 5 5 5 4 3 2 3 2 3 4 1 0 2 4 3 5 5 5 5 6 4 3 3 5 3
16 15 15 14 14 14 14 13 11 11 9 6 4 3 4 5 5 4 4 4 4 4 4 1 2 1 5 3 3 4 2 3 5 3 3 3 6 4 4 2 2 2 2
17 16 15 15 14 15 15 13 12 11 9 7 6 5 4 3 6 6 5 5 5 5 3 3 1 3 3 4 1 3 4 4 4 5 5 3 3 3 3 4 3 2 2
16 18 17 16 16 15 15 14 13 10 8 9 8 6 8 7 5 6 5 5 5 5 6 4 4 2 1 2 2 3 3 6 4 3 5 6 5 3 5 5 4 4 4
20 18 19 18 17 15 14 14 13 11 9 9 6 7 8 6 6 4 6 3 4 6 6 5 5 4 5 3 1 1 4 2 4 4 1 3 2 3 3 3 3 5 1
19 19 18 16 15 14 13 13 13 12 11 9 9 8 6 4 5 5 5 5 6 4 4 5 4 3 3 4 4 2 2 5 3 3 3 4 4 5 3 1 1 2 3
19 18 17 15 14 16 15 14 14 13 13 11 9 9 8 6 6 6 6 1 6 7 8 7 6 5 5 4 3 4 2 3 2 3 3 2 3 3 4 5 3 3 3
20 17 18 16 17 16 16 15 15 14 13 12 10 7 7 6 7 6 2 6 3 5 7 7 6 5 5 5 4 6 6 3 3 3 4 4 2 3 3 5 6 6 4
18 18 16 15 15 16 17 15 14 13 12 13 10 10 9 9 6 3 4 6 4 3 6 6 6 6 6 5 4 5 5 4 4 3 3 6 3 3 3 4 4 6 9
18 15 16 16 15 16 13 12 13 12 11 11 10 9 9 9 8 5 6 4 1 5 6 6 6 6 6 6 6 4 6 5 5 5 2 5 5 4 4 5 5 5 6
21 15 10 14 14 14 12 4 9 10 10 10 10 10 8 8 7 7 8 4 4 5 5 6 6 5 6 7 7 5 3 6 5 5 5 5 4 7 6 5 6 6 6
17 15 12 9 8 13 9 7 6 4 6 8 9 10 11 8 8 8 8 5 6 4 4 4 6 5 5 5 7 6 5 6 6 6 5 6 5 4 6 7 5 8 7
16 17 17 17 18 13 11 8 4 4 2 8 10 8 11 12 10 9 9 7 8 7 7 5 4 5 5 5 6 6 6 6 6 6 5 6 6 6 7 5 7 6 6
11 12 13 14 16 15 13 9 8 4 2 5 5 6 9 12 10 9 9 9 8 8 8 7 6 6 5 5 5 7 6 6 7 6 6 6 7 7 7 7 6 8 7
13 13 12 11 11 10 13 13 12 10 8 7 7 6 4 3 6 8 8 8 8 8 7 8 7 6 6 4 5 6 6 6 6 6 7 8 3 4 4 5 6 8 8
11 12 12 13 13 15 15 15 15 12 10 7 6 6 3 2 3 3 5 5 5 6 5 5 4 2 2 10 9 8 7 7 6 5 5 5 3 5 7 7 7 7 8
7 8 11 10 12 13 13 14 13 11 10 8 8 7 7 6 3 3 2 5 5 5 5 4 7 6 6 12 5 5 9 6 5 4 4 3 5 5 6 6 9 11 12
8 7 7 7 6 5 8 9 10 10 10 11 10 10 8 7 4 1 3 3 3 5 5 6 7 8 9 15 10 1 3 9 9 6 6 7 5 6 8 8 7 8 7
8 7 6 7 8 8 7 10 9 9 10 8 7 8 6 6 6 4 2 2 2 4 7 6 7 8 10 17 16 2 7 8 8 8 7 5 6 8 9 6 6 8 7
8 9 9 9 10 8 8 11 9 9 8 9 7 5 2 5 6 5 6 4 1 9 8 9 9 8 10 17 18 13 6 6 6 6 7 12 8 7 8 6 6 5 7
12 11 11 10 9 9 8 11 9 9 6 7 8 8 5 5 5 5 4 8 9 9 9 9 6 8 8 12 16 18 7 4 5 3 3 5 8 8 7 5 6 6 7
11 10 11 10 8 8 8 9 8 5 5 7 8 7 6 5 5 7 7 9 9 9 9 8 7 5 6 10 12 13 11 10 4 4 4 4 8 7 6 6 8 11 10
10 8 10 11 8 5 4 6 5 6 6 7 7 7 6 6 6 7 8 6 6 5 6 5 6 3 2 3 7 7 8 7 5 5 6 8 8 11 8 1 10 11 6
7 8 8 9 8 6 6 4 4 4 5 6 6 6 6 6 5 5 3 3 4 3 5 4 4 3 4 5 6 6 4 3 3 2 2 6 9 8 7 5 4 7 7
6 6 7 7 8 5 4 5 4 3 5 5 5 6 6 5 7 9 8 6 9 9 0 3 3 2 3 7 7 7 5 5 4 6 2 4 5 5 6 7 8 9 8
6 6 7 7 6 6 5 5 4 3 2 3 3 2 4 6 6 7 9 15 13 14 14 13 10 8 10 7 7 7 8 8 7 1 4 5 4 5 5 6 8 8 9
Wind_Direction
175 167 178 169 162 164 164 167 165 159 173 172 172 152 153 140 151 144 145 148 136 133 162 115 154 172 116 40 26 91 101 66 36 246 138 119 149 133 135 142 141 125 171
174 179 184 180 177 173 176 175 174 175 187 166 222 180 161 170 149 149 158 182 162 156 168 208 146 333 126 109 46 3 318 78 42 13 259 145 162 104 84 107 146 67 128
176 194 190 190 187 178 183 182 188 179 197 217 190 187 172 166 179 157 184 171 183 174 191 177 24 157 278 121 42 48 349 82 76 21 333 207 88 199 143 155 117 186 140
218 186 192 194 197 183 184 183 189 194 199 197 203 189 207 173 175 186 163 171 187 215 183 190 195 209 193 85 135 83 353 311 77 119 71 27 359 356 154 138 107 189 204
207 204 192 194 197 185 184 183 185 184 194 190 208 206 215 170 188 177 152 180 178 205 207 193 201 205 223 147 224 180 8 88 18 39 96 48 134 104 328 92 106 151 124
197 205 201 195 197 187 185 181 180 180 187 199 205 220 190 225 179 179 185 207 182 186 190 191 197 215 241 208 213 173 197 360 29 19 354 17 360 30 13 41 174 353 98
211 203 206 193 200 191 187 183 179 183 189 194 205 207 213 231 229 209 227 175 165 185 184 195 206 211 199 194 219 195 219 211 333 330 353 25 17 0 351 315 62 326 33
213 204 195 193 194 196 190 188 181 188 192 199 208 205 224 215 225 237 258 201 234 211 135 187 193 188 193 205 188 211 232 179 245 296 328 309 334 337 340 347 329 311 197
213 209 192 186 197 194 196 191 183 189 192 201 203 208 212 233 286 320 232 187 212 227 168 194 192 192 191 204 198 235 219 230 228 243 253 276 275 277 288 289 311 324 307
203 202 205 183 192 200 184 213 186 188 192 203 203 207 219 220 222 250 257 281 240 219 174 200 202 202 198 207 215 208 202 229 246 247 212 270 283 269 266 281 282 278 293
187 179 207 192 185 183 166 150 187 185 198 201 208 219 209 223 233 222 231 223 259 212 202 213 212 199 211 219 209 246 246 223 240 268 260 262 280 283 293 271 271 272 270
188 167 164 144 152 160 134 143 139 206 204 224 216 207 225 229 228 221 237 225 240 230 235 215 210 230 206 208 218 225 213 223 233 239 252 259 269 272 260 271 271 309 321
189 189 171 175 178 169 141 137 92 97 342 249 209 208 218 229 235 235 233 211 235 247 248 242 235 221 216 194 208 224 229 227 229 240 240 260 261 266 291 296 314 280 256
179 189 180 182 183 185 177 146 127 128 195 197 210 217 206 220 228 237 243 241 227 241 241 238 230 217 217 227 214 207 223 239 236 249 248 242 267 266 272 266 285 271 278
180 177 180 178 185 176 182 167 141 143 153 130 97 97 124 230 238 233 233 238 229 222 235 229 226 227 216 227 222 217 225 231 234 244 254 239 263 356 315 283 270 280 269
183 177 176 177 177 172 177 165 163 167 165 148 148 134 144 87 179 220 205 199 199 182 196 209 199 231 268 358 346 293 254 239 238 245 247 279 228 224 223 240 253 275 277
177 187 185 191 187 186 191 181 168 159 171 157 149 154 144 143 114 107 131 155 155 150 145 148 77 64 24 346 306 267 252 248 254 244 251 238 62 352 328 305 247 233 227
117 101 102 96 71 89 116 131 145 163 155 166 160 161 156 141 126 76 106 202 157 138 136 107 102 85 49 355 360 22 60 80 69 68 82 88 71 37 336 318 313 311 299
105 99 102 102 90 76 93 107 103 118 125 117 124 141 150 148 156 175 203 261 160 192 122 104 84 74 53 9 1 16 118 109 97 82 40 62 64 19 342 329 348 331 327
105 109 96 85 85 60 82 85 87 93 97 110 109 101 122 185 172 178 171 196 19 88 104 97 78 58 56 27 16 358 111 109 119 115 122 68 39 348 345 336 351 351 351
103 98 90 81 70 69 70 86 79 79 95 101 116 113 91 105 132 148 160 99 108 106 105 101 88 63 23 45 36 20 39 31 103 88 74 42 12 345 335 317 8 334 309
89 80 90 83 72 70 77 77 87 102 102 122 117 111 112 109 112 121 126 124 129 125 123 122 114 100 73 31 32 28 33 360 64 38 25 356 339 325 329 358 322 290 281
92 85 83 82 71 65 111 94 104 111 122 116 107 108 111 106 116 124 125 122 148 139 138 156 130 130 79 50 46 34 24 11 8 11 333 305 316 289 237 11 290 290 9
95 111 109 90 81 74 67 97 102 111 118 118 123 132 124 108 108 117 122 136 136 154 154 160 155 143 91 32 7 354 357 356 330 359 11 340 284 273 277 301 358 12 15
104 98 94 96 95 84 73 74 82 111 118 129 135 150 139 124 98 56 23 82 45 11 111 63 29 335 88 46 353 341 1 355 358 312 27 30 28 15 9 13 21 14 2
98 107 106 104 106 104 98 86 73 50 88 140 163 102 146 152 127 124 102 62 61 51 53 45 37 85 55 24 2 342 328 325 311 167 65 58 38 26 30 28 5 14 1